Location: Goldmont Forest
(38.0233°N, 120.2524°W)
Time: 18:43:53
(UTC+00:00)

Cosmos 2237 Rocket - Pass Details

Date: 05 August 2024
Orbit: 836 x 848 km, 71.0° (Epoch: 12 September)

Event Time Altitude Azimuth Distance (km) Brightness Sun altitude
Exits shadow 12:14:19 12° 223° (SW) 2,324 3.9 -10.3°
Maximum altitude 12:19:24 49° 297° (WNW) 1,074 2.6 -9.4°
Drops below altitude 10° 12:24:51 10° 12° (NNE) 2,460 5.2 -8.5°
Sets 12:27:24 0° 17° (NNE) 3,396 6.1 -8.1°
